Погода в Бериславе

Украина / Херсонская область     46°50′29″N   33°25′45″E
темп.,
°C
ветер,
м/с
пор.,
м/с
влажн.,
%
обл.,
%
осадки,
мм/ч
давл.,
гПа
погр.,
м
26 февраля, пт
пт2623:00+3зюз5996100 0.1 1029190
02:00+4з489794 0.1 1028144
05:00+3з349896 0.0 102854
08:00+4з239987 0.0 1027103
11:00+7зюз468797 0.0 1026332
14:00+9зюз577998 0.0 1024389
17:00+9зюз487512 0.0 1022194
20:00+6юз46896 0.0 1021112
27 февраля, сб
сб2723:00+5юз46920 0.0 1020100
02:00+4зюз35940 0.0 101967
05:00+3з34960 0.0 101752
08:00+4зсз469832 0.1 1017231
11:00+6зсз4694100 0.1 1016311
14:00+8сз5879100 0.1 1016523
17:00+6сз5976100 0.1 1017478
20:00+4сз367799 0.1 1018145
28 февраля, вс
вс2823:00+4сз4883100 0.1 1018265
02:00+3сз4789100 0.2 1019293
05:00+2сз579498 0.1 1019354
08:00+2с359399 0.1 1020282
11:00+4ссз478097 0.3 1021592
14:00+4ссз477898 0.6 1021622
17:00+3ссз577796 0.1 1022615
20:00+3ссз378098 0.2 1024405
1 марта, пн
пн123:00+2ссз3681100 0.1 1024253
02:00+1ссз3683100 0.2 1025219
05:00+1ссз3588100 0.1 1026198
08:000ссз458799 0.1 1027277
11:00+2с347466 0.1 1028640
14:00+3с346779 0.1 1027733
17:00+3ссв3470100 0.1 1028410
20:00+1св237597 0.1 103052
2 марта, вт
вт223:000ссв23802 0.0 103132
02:00−1ссв23831 0.0 103239
05:00−1с34840 0.0 103266
08:000с237811 0.0 1033140
11:00+3ссз335931 0.0 1033770
14:00+5сз455134 0.0 1032938
17:00+4зсз586533 0.0 1029463
20:00+3з497364 0.0 1029303